User: anonymous
Location: Unspecified
(0.0000°N, 0.0000°E)
Time: 09:50:24
(UTC+02:00)
Language:

Iridium 15 - Orbit

View from above orbital plane
View from above orbital plane
View from above satellite
View from above satellite

Ground track
Ground track

The orbit data is extracted from the following two-line orbital elements,

1 24869U 97034A   14113.42491698  .00000090  00000-0  25106-4 0  8788
2 24869 086.3955 142.8510 0002374 107.9642 025.3188 14.34216763878976
Epoch (UTC): 23 April 2014 10:11:52
Eccentricity: 0.0002374
inclination: 86.3955°
perigee height: 776 km
apogee height: 779 km
right ascension of ascending node: 142.8510°
argument of perigee: 107.9642°
revolutions per day: 14.34216763
mean anomaly at epoch: 25.3188°
orbit number at epoch: 87897

The dashed part of the orbit path shows where the satellite is in the earth's shadow,  

DLR